Kankakee, IL

12:32 PM CST on December 08, 2019 (GMT -0600)
Greater Kankakee

Weather History for KIKK - October, 2019

Change the Weather History Date:

Tuesday, October 1, 2019

  Actual Average Record
Temperature  
Mean Temperature 79 °F -  
Max Temperature 89 °F 73 °F 89 °F (2019)
Min Temperature 69 °F 45 °F 31 °F (1984)
Cooling Degree Days 14    
Growing Degree Days 29 (Base 50)    
Moisture  
Dew Point 68 °F    
Average Humidity 69    
Maximum Humidity 91    
Minimum Humidity 52    
Precipitation  
Precipitation 0.40 in - - ()
Sea Level Pressure  
Sea Level Pressure 29.96 in    
Wind  
Wind Speed 8 mph (SW)    
Max Wind Speed 18 mph    
Max Gust Speed 25 mph    
Visibility 10 miles    
Events      
Averages and records for this station are not official NWS values.
T = Trace of Precipitation, MM = Missing Value Source: NWS Daily Summary

Daily Weather History Graph

Daily Weather History Graph

Search for Another Location

Airport or City:

Astronomy

Oct. 01, 2019 Rise Set
Actual Time 6:47 AM CDT 6:33 PM CDT
Civil Twilight 6:20 AM CDT 7:01 PM CDT
Nautical Twilight 5:48 AM CDT 7:32 PM CDT
Astronomical Twilight 5:16 AM CDT 8:05 PM CDT
Moon 10:04 AM CDT (10/1) 8:45 PM CDT (10/1)
Length of Visible Light 12h 40m
Length of Day
11h 45m
Waxing Crescent, 12% of the Moon is Illuminated
Oct 1
Waxing Crescent
Oct 5
First Quarter
Oct 13
Full
Oct 21
Last Quarter
Oct 27
New

Hourly Weather History & Observations

Time (CDT) Temp. Heat Index Dew Point Humidity Pressure Visibility Wind Dir Wind Speed Gust Speed Precip Events Conditions
12:15 AM 73.6 °F - 64.8 °F 74% 29.98 in 10.0 mi SSW 8.1 mph - N/A   Clear
12:35 AM 73.8 °F - 64.8 °F 73% 29.97 in 10.0 mi SW 5.8 mph - N/A   Clear
12:55 AM 73.4 °F - 64.9 °F 75% 29.97 in 10.0 mi SW 4.6 mph - N/A   Clear
1:15 AM 72.9 °F - 65.1 °F 77% 29.97 in 10.0 mi SSW 5.8 mph - N/A   Clear
1:35 AM 73.2 °F - 65.3 °F 76% 29.98 in 10.0 mi SSW 5.8 mph - N/A   Clear
1:55 AM 72.9 °F - 65.3 °F 77% 29.99 in 10.0 mi SSW 5.8 mph - N/A   Clear
2:15 AM 72.9 °F - 65.3 °F 77% 29.99 in 10.0 mi SSW 5.8 mph - N/A   Clear
2:35 AM 72.5 °F - 65.3 °F 78% 29.99 in 10.0 mi SW 4.6 mph - N/A   Clear
2:55 AM 72.0 °F - 65.3 °F 79% 29.99 in 10.0 mi SW 5.8 mph - N/A   Clear
3:15 AM 71.6 °F - 65.3 °F 80% 29.99 in 10.0 mi SSW 4.6 mph - N/A   Clear
3:35 AM 71.6 °F - 65.3 °F 80% 29.99 in 10.0 mi SSW 5.8 mph - N/A   Clear
3:55 AM 71.6 °F - 65.3 °F 80% 29.99 in 10.0 mi SSW 6.9 mph - N/A   Clear
4:15 AM 71.6 °F - 65.5 °F 81% 29.99 in 10.0 mi SSW 6.9 mph - N/A   Clear
4:35 AM 70.9 °F - 65.5 °F 83% 29.99 in 10.0 mi SSW 5.8 mph - N/A   Clear
4:55 AM 70.7 °F - 65.5 °F 83% 30.00 in 10.0 mi SSW 5.8 mph - N/A   Clear
5:15 AM 71.6 °F - 66.0 °F 82% 30.00 in 10.0 mi SSW 6.9 mph - N/A   Clear
5:35 AM 71.6 °F - 66.2 °F 83% 30.00 in 10.0 mi SSW 6.9 mph - N/A   Clear
5:55 AM 71.6 °F - 66.2 °F 83% 30.00 in 10.0 mi SW 6.9 mph - N/A   Clear
6:15 AM 70.9 °F - 66.2 °F 85% 30.00 in 10.0 mi SSW 5.8 mph - N/A   Clear
6:35 AM 69.8 °F - 66.9 °F 91% 30.00 in 10.0 mi SSW 8.1 mph - N/A   Clear
6:55 AM 70.0 °F - 66.6 °F 89% 30.01 in 10.0 mi SSW 5.8 mph - N/A   Clear
7:15 AM 70.5 °F - 66.7 °F 88% 30.01 in 10.0 mi SW 6.9 mph - N/A   Clear
7:35 AM 71.4 °F - 66.9 °F 86% 30.02 in 10.0 mi SW 6.9 mph - N/A   Clear
7:55 AM 72.5 °F - 67.1 °F 83% 30.01 in 10.0 mi SSW 8.1 mph - N/A   Clear
8:15 AM 73.6 °F - 67.5 °F 81% 30.01 in 10.0 mi SW 9.2 mph - N/A   Clear
8:35 AM 74.8 °F - 68.0 °F 79% 30.00 in 10.0 mi SSW 9.2 mph - N/A   Clear
8:55 AM 76.6 °F - 68.5 °F 76% 30.00 in 10.0 mi SW 9.2 mph - N/A   Clear
9:15 AM 78.1 °F - 68.9 °F 73% 30.00 in 10.0 mi SSW 8.1 mph - N/A   Clear
9:35 AM 79.2 °F - 68.9 °F 71% 30.00 in 10.0 mi SW 10.4 mph - N/A   Clear
9:55 AM 80.8 °F 83.9 °F 69.3 °F 68% 30.00 in 10.0 mi SW 11.5 mph - N/A   Clear
10:15 AM 82.0 °F 85.5 °F 69.1 °F 65% 30.00 in 10.0 mi SW 11.5 mph - N/A   Clear
10:35 AM 83.3 °F 86.9 °F 68.9 °F 62% 30.00 in 10.0 mi SW 12.7 mph 17.3 mph N/A   Clear
10:55 AM 84.2 °F 87.3 °F 68.2 °F 58% 30.00 in 10.0 mi WSW 12.7 mph 19.6 mph N/A   Clear
11:15 AM 85.3 °F 88.5 °F 68.2 °F 56% 30.00 in 10.0 mi SW 12.7 mph - N/A   Clear
11:35 AM 85.5 °F 89.1 °F 68.9 °F 57% 30.00 in 10.0 mi WSW 16.1 mph 19.6 mph N/A   Clear
11:55 AM 86.2 °F 90.4 °F 69.4 °F 57% 30.00 in 10.0 mi WSW 16.1 mph 20.7 mph N/A   Clear
12:15 PM 86.4 °F 91.1 °F 70.0 °F 58% 30.00 in 10.0 mi WSW 17.3 mph 23.0 mph N/A   Scattered Clouds
12:35 PM 85.1 °F 89.4 °F 69.8 °F 60% 30.00 in 10.0 mi West 16.1 mph 25.3 mph N/A   Mostly Cloudy
12:55 PM 86.9 °F 91.7 °F 70.0 °F 57% 29.99 in 10.0 mi WSW 13.8 mph 19.6 mph N/A   Scattered Clouds
1:15 PM 87.8 °F 93.8 °F 71.2 °F 58% 29.99 in 10.0 mi West 15.0 mph 23.0 mph 0.01 in   Mostly Cloudy
1:35 PM 87.6 °F 93.5 °F 71.1 °F 58% 29.97 in 10.0 mi WSW 16.1 mph - 0.04 in   Scattered Clouds
1:55 PM 88.2 °F 93.7 °F 70.5 °F 56% 29.96 in 10.0 mi SW 12.7 mph 21.9 mph 0.08 in   Scattered Clouds
2:15 PM 88.9 °F 94.2 °F 70.5 °F 54% 29.96 in 10.0 mi WSW 15.0 mph 18.4 mph 0.03 in   Scattered Clouds
2:35 PM 89.2 °F 94.5 °F 70.0 °F 53% 29.96 in 10.0 mi WSW 18.4 mph 24.2 mph 0.06 in   Scattered Clouds
2:55 PM 89.6 °F 95.7 °F 70.9 °F 54% 29.95 in 10.0 mi West 15.0 mph 20.7 mph 0.09 in   Scattered Clouds
3:15 PM 87.6 °F 92.7 °F 70.3 °F 56% 29.95 in 10.0 mi West 13.8 mph - 0.02 in   Scattered Clouds
3:35 PM 89.4 °F 95.3 °F 70.7 °F 54% 29.94 in 10.0 mi WSW 18.4 mph 24.2 mph 0.05 in   Mostly Cloudy
3:55 PM 89.1 °F 94.6 °F 70.7 °F 54% 29.94 in 10.0 mi WSW 11.5 mph 16.1 mph 0.07 in   Mostly Cloudy
4:15 PM 87.8 °F 93.0 °F 70.2 °F 56% 29.94 in 10.0 mi WSW 15.0 mph - 0.02 in   Mostly Cloudy
4:35 PM 88.9 °F 93.4 °F 69.4 °F 52% 29.93 in 10.0 mi WSW 12.7 mph - 0.04 in   Mostly Cloudy
4:55 PM 88.2 °F 93.3 °F 70.0 °F 55% 29.92 in 10.0 mi SSW 8.1 mph - 0.05 in   Mostly Cloudy
5:15 PM 87.8 °F 92.6 °F 69.6 °F 55% 29.92 in 10.0 mi SW 9.2 mph - 0.01 in   Scattered Clouds
5:35 PM 87.3 °F 92.0 °F 69.8 °F 56% 29.92 in 10.0 mi SW 6.9 mph - 0.02 in   Clear
5:55 PM 86.2 °F 90.4 °F 69.3 °F 57% 29.92 in 10.0 mi SW 8.1 mph - 0.03 in   Clear
6:15 PM 84.6 °F 88.5 °F 69.4 °F 60% 29.91 in 10.0 mi SSW 5.8 mph - 0.01 in   Clear
6:35 PM 83.3 °F 87.1 °F 69.4 °F 63% 29.91 in 10.0 mi SW 4.6 mph - 0.02 in   Clear
6:55 PM 81.9 °F 85.4 °F 69.4 °F 66% 29.91 in 10.0 mi SSW 4.6 mph - 0.03 in   Clear
7:15 PM 80.4 °F 83.5 °F 69.3 °F 69% 29.90 in 10.0 mi SSW 5.8 mph - 0.01 in   Clear
7:35 PM 79.5 °F - 69.3 °F 71% 29.90 in 10.0 mi South 5.8 mph - 0.01 in   Clear
7:55 PM 79.9 °F - 69.1 °F 69% 29.90 in 10.0 mi SSW 6.9 mph - 0.02 in   Clear
8:15 PM 80.6 °F 83.5 °F 68.9 °F 67% 29.89 in 10.0 mi SSW 8.1 mph - N/A   Clear
8:35 PM 79.3 °F - 68.9 °F 70% 29.89 in 10.0 mi SSW 9.2 mph - 0.01 in   Clear
8:55 PM 80.1 °F 82.7 °F 68.2 °F 67% 29.89 in 10.0 mi SSW 8.1 mph - 0.01 in   Clear
9:15 PM 80.6 °F 83.2 °F 68.0 °F 65% 29.89 in 10.0 mi SSW 11.5 mph 16.1 mph 0.01 in   Clear
9:35 PM 81.0 °F 83.4 °F 67.3 °F 63% 29.90 in 10.0 mi SSW 11.5 mph - 0.01 in   Clear
9:55 PM 80.6 °F 82.9 °F 67.1 °F 63% 29.91 in 10.0 mi SW 11.5 mph - 0.01 in   Clear
10:15 PM 79.7 °F - 67.1 °F 65% 29.91 in 10.0 mi SW 8.1 mph - N/A   Clear
10:35 PM 78.8 °F - 67.1 °F 67% 29.90 in 10.0 mi SW 8.1 mph - 0.01 in   Clear
10:55 PM 77.9 °F - 67.1 °F 69% 29.90 in 10.0 mi SW 8.1 mph - 0.01 in   Clear
11:15 PM 78.1 °F - 66.6 °F 68% 29.90 in 10.0 mi SW 10.4 mph - N/A   Clear
11:35 PM 78.1 °F - 66.6 °F 68% 29.90 in 10.0 mi SW 8.1 mph - N/A   Clear
11:55 PM 77.5 °F - 66.6 °F 69% 29.90 in 10.0 mi SW 6.9 mph - N/A   Clear